N6EQ Weather Reports


time (UTC)temp
F
wind
direction
speed
knots
gust
knots
rain 1hr
in
rain 24hr
in
rain mn
in
humidity
%
barometer
mb
20260831193048 99 201 10.4 25.2 0.00 0.00 0.00 29 950.8
20260831191547 98 205 15.6 26.1 0.00 0.00 0.00 28 950.9
20260831190045 98 12.2 20.0 0.00 0.00 0.00 28 951.0
20260831184545 97 11.3 26.9 0.00 0.00 0.00 28 950.9
20260831183039 97 153 16.5 20.9 0.00 0.00 0.00 28 951.0
20260831181545 96 136 13.0 22.6 0.00 0.00 0.00 30 951.1
20260831180034 96 139 12.2 22.6 0.00 0.00 0.00 32 951.2
20260831174531 94 207 8.7 22.6 0.00 0.00 0.00 36 951.3
20260831173033 93 203 8.7 21.7 0.00 0.00 0.00 37 951.3
20260831171528 94 207 7.8 18.2 0.00 0.00 0.00 38 951.3
20260831170033 93 136 8.7 18.2 0.00 0.00 0.00 38 951.3
20260831164525 93 188 9.6 19.1 0.00 0.00 0.00 38 951.3
20260831163021 92 169 11.3 16.5 0.00 0.00 0.00 37 951.3
20260831161521 92 178 11.3 16.5 0.00 0.00 0.00 37 951.2
20260831160018 92 240 6.1 13.0 0.00 0.00 0.00 38 951.1
20260831154515 90 232 6.1 10.4 0.00 0.00 0.00 41 951.2
20260831153013 89 209 3.5 9.6 0.00 0.00 0.00 42 951.1
20260831151511 88 225 5.2 7.0 0.00 0.00 0.00 44 951.0
20260831150009 87 241 1.7 6.1 0.00 0.00 0.00 44 950.9
20260831144509 86 180 0.0 2.6 0.00 0.00 0.00 45 950.9
20260831143008 86 130 0.0 2.6 0.00 0.00 0.00 46 950.7
20260831141506 85 134 0.9 2.6 0.00 0.00 0.00 47 950.5
20260831140004 85 132 0.0 1.7 0.00 0.00 0.00 47 950.1
20260831134600 85 149 0.0 1.7 0.00 0.00 0.00 47 950.0
20260831133058 85 168 0.0 4.3 0.00 0.00 0.00 47 949.8
20260831131600 84 150 1.7 3.5 0.00 0.00 0.00 48 949.5
20260831130054 85 124 0.0 3.5 0.00 0.00 0.00 47 949.3
20260831124553 85 141 0.0 2.6 0.00 0.00 0.00 47 949.4
20260831123049 85 179 0.0 0.9 0.00 0.00 0.00 46 949.2
20260831121549 86 107 0.0 0.0 0.00 0.00 0.00 46 949.1
20260831114548 86 207 0.0 0.0 0.00 0.00 0.00 46 948.9
20260831113050 86 124 0.0 0.0 0.00 0.00 0.00 46 949.1
20260831111543 86 209 0.0 0.9 0.00 0.00 0.00 45 949.1
20260831110042 87 210 0.9 5.2 0.00 0.00 0.00 44 949.1
20260831104542 87 238 0.0 2.6 0.00 0.00 0.00 43 949.1
20260831103042 87 245 0.0 3.5 0.00 0.00 0.00 43 948.9
20260831101540 89 236 2.6 7.8 0.00 0.00 0.00 42 949.1
20260831100038 87 196 0.0 0.0 0.00 0.00 0.00 43 949.1
20260831094536 87 111 0.0 0.0 0.00 0.00 0.00 43 949.1
20260831093035 87 167 0.0 4.3 0.00 0.00 0.00 42 949.0
20260831091536 87 0.0 5.2 0.00 0.00 0.00 42 948.9
20260831090033 88 0.0 2.6 0.00 0.00 0.00 42 948.8
20260831084532 87 103 0.0 0.0 0.00 0.00 0.00 41 948.9
20260831083032 87 0.0 0.0 0.00 0.00 0.00 41 948.8
20260831081530 87 0.0 0.0 0.00 0.00 0.00 42 948.8
20260831080033 87 210 0.0 0.0 0.00 0.00 0.00 41 948.8
20260831074529 87 0.0 0.0 0.00 0.00 0.00 41 948.9
20260831073027 87 115 0.0 0.0 0.00 0.00 0.00 41 948.8
20260831071524 87 0.0 0.0 0.00 0.00 0.00 42 948.8
20260831070022 87 0.0 0.0 0.00 0.00 0.00 43 948.6
20260831064522 87 0.0 0.0 0.00 0.00 0.00 43 948.6
20260831063021 87 0.0 0.9 0.00 0.00 0.00 45 948.5
20260831061520 87 0.0 4.3 0.00 0.00 0.00 44 948.5
20260831060018 88 0.9 4.3 0.00 0.00 0.00 44 948.5
20260831054518 88 0.0 3.5 0.00 0.00 0.00 45 948.5
20260831053019 88 1.7 5.2 0.00 0.00 0.00 44 948.6
20260831051523 89 0.9 7.0 0.00 0.00 0.00 43 948.6
20260831050013 89 4.3 8.7 0.00 0.00 0.00 41 948.6
20260831044514 90 232 4.3 9.6 0.00 0.00 0.00 40 948.6
20260831043011 91 210 3.5 11.3 0.00 0.00 0.00 38 948.5
20260831041510 94 188 2.6 14.8 0.00 0.00 0.00 36 948.3
20260831040009 95 243 1.7 10.4 0.00 0.00 0.00 36 948.0
20260831034509 96 116 8.7 16.5 0.00 0.00 0.00 33 947.5
20260831033015 97 113 10.4 17.4 0.00 0.00 0.00 31 947.2
20260831031512 97 116 9.6 15.6 0.00 0.00 0.00 31 947.0
20260831030005 99 116 10.4 16.5 0.00 0.00 0.00 31 946.8
20260831024504 100 149 7.0 12.2 0.00 0.00 0.00 27 946.5
20260831023003 101 173 8.7 14.8 0.00 0.00 0.00 22 946.4
20260831021505 102 239 3.5 9.6 0.00 0.00 0.00 19 946.1
20260831020002 102 224 3.5 11.3 0.00 0.00 0.00 20 946.1
20260831014501 103 221 7.8 12.2 0.00 0.00 0.00 19 946.2
20260831013105 104 148 7.0 14.8 0.00 0.00 0.00 19 946.2
20260831011600 104 243 6.1 12.2 0.00 0.00 0.00 19 946.2
20260831010059 104 135 7.0 15.6 0.00 0.00 0.00 19 946.3
20260831004600 105 195 7.0 18.2 0.00 0.00 0.00 19 946.4
20260831003058 105 168 5.2 18.2 0.00 0.00 0.00 19 946.3
20260831001557 105 6.1 17.4 0.00 0.00 0.00 19 946.2
20260831000059 105 7.8 13.9 0.00 0.00 0.00 19 946.2
20260830234553 105 187 10.4 16.5 0.00 0.00 0.00 19 946.4
20260830233053 105 9.6 18.2 0.00 0.00 0.00 20 946.6
20260830231551 105 210 8.7 17.4 0.00 0.00 0.00 20 946.7
20260830230049 105 8.7 20.9 0.00 0.00 0.00 20 946.9
20260830224548 105 210 8.7 18.2 0.00 0.00 0.00 20 947.1
20260830223045 104 210 10.4 16.5 0.00 0.00 0.00 20 947.3
20260830221544 104 197 11.3 18.2 0.00 0.00 0.00 20 947.5
20260830220048 104 150 13.9 23.5 0.00 0.00 0.00 20 947.8
20260830214547 105 224 6.1 27.8 0.00 0.00 0.00 20 948.0
20260830213041 104 181 4.3 16.5 0.00 0.00 0.00 21 948.3
20260830211539 103 172 9.6 20.0 0.00 0.00 0.00 21 948.4
20260830210039 103 162 7.0 16.5 0.00 0.00 0.00 22 948.8
20260830204538 103 210 7.8 16.5 0.00 0.00 0.00 21 949.1
20260830203040 103 240 6.1 20.9 0.00 0.00 0.00 22 949.1
20260830201635 103 152 11.3 18.2 0.00 0.00 0.00 22 949.3
20260830200034 102 147 13.0 20.9 0.00 0.00 0.00 22 949.5
20260830194535 102 163 7.0 16.5 0.00 0.00 0.00 22 949.4